Theta_e
336 329 319 321 324 324 323 321 329 329 328 327 326 326 324 325 326 324 337 338 339 335 332 334 333 334 330 328 321 321 329 333 333 325 324 321 320 320 320 320 324 322 322
338 333 320 321 324 325 328 328 340 330 328 324 325 322 321 323 329 336 338 339 338 332 326 324 331 332 331 321 323 322 324 332 329 326 325 324 320 317 324 329 327 327 325
337 336 323 323 324 333 330 337 336 330 334 331 332 331 335 334 336 338 339 337 334 330 325 317 315 326 325 317 320 323 322 322 323 330 332 334 332 330 327 334 333 334 334
336 337 336 330 329 340 331 329 336 335 336 337 338 338 336 336 336 337 338 337 334 329 316 311 310 311 313 315 319 322 322 322 324 330 333 332 332 328 326 332 333 335 335
338 338 337 336 334 339 337 331 335 336 336 336 337 337 335 335 337 337 336 333 327 315 308 308 308 309 311 313 316 322 323 321 323 330 329 328 330 328 328 331 332 333 333
339 339 337 338 328 338 336 329 334 335 334 335 333 330 329 328 328 327 323 318 312 308 308 308 308 308 308 310 316 327 325 319 326 327 333 332 333 331 328 327 331 332 331
341 339 338 336 333 336 339 336 328 331 328 330 334 327 325 322 319 316 313 309 308 308 308 308 308 308 308 308 314 324 318 319 324 333 333 334 333 330 331 329 327 329 327
339 339 338 335 336 335 339 337 325 326 334 336 336 328 321 317 314 311 308 308 308 308 308 308 309 309 308 309 315 319 317 315 332 333 333 332 331 329 328 328 327 326 324
338 339 337 335 335 335 339 335 324 333 336 336 335 325 320 313 309 307 308 308 308 308 308 325 319 313 311 310 312 314 314 327 330 330 331 330 329 327 325 323 321 320 316
338 338 336 336 334 333 338 333 327 335 337 338 331 326 316 309 307 308 308 308 308 307 312 326 326 320 317 318 320 322 327 329 328 331 331 328 326 323 314 311 307 306 306
337 337 336 335 334 335 335 330 332 336 338 338 332 321 311 308 308 308 308 308 307 308 325 328 327 322 319 319 318 322 326 328 330 328 328 326 322 316 310 310 309 310 312
331 329 336 334 335 335 333 329 334 336 337 335 329 316 312 315 314 313 308 307 307 322 328 327 325 320 322 322 320 319 324 326 326 326 324 324 322 313 314 309 308 314 317
319 326 327 335 335 336 331 333 335 338 336 330 326 318 318 313 308 308 308 317 314 326 326 323 322 323 323 323 322 321 322 322 323 322 320 315 317 319 315 312 307 309 319
315 318 323 321 333 335 332 335 338 335 331 328 322 314 313 311 310 316 320 321 322 326 322 321 321 320 319 317 319 320 322 322 321 318 311 316 319 318 319 314 310 311 317
316 315 318 319 320 333 335 336 337 334 333 323 312 310 309 308 310 311 318 319 320 321 317 318 318 316 315 317 319 320 319 319 317 317 316 316 319 320 319 318 313 308 307
317 315 315 319 319 324 332 337 337 335 329 317 310 308 308 307 307 307 310 316 316 317 316 316 314 315 313 316 318 316 313 313 308 314 316 310 309 309 311 312 315 314 310
318 315 315 317 316 317 328 330 336 334 325 311 309 308 307 306 305 305 306 311 314 315 315 314 312 310 310 313 312 310 309 306 307 307 313 311 306 306 306 306 306 308 310
317 314 314 317 315 317 319 320 326 330 316 310 308 306 305 305 305 306 308 311 313 313 313 312 311 310 308 307 306 306 306 306 306 306 306 306 306 306 305 305 305 305 305
319 316 314 316 317 318 321 319 318 318 313 309 306 305 304 305 306 308 309 310 312 313 313 312 311 310 308 308 307 307 307 307 307 307 306 306 306 306 306 305 305 305 305
321 320 318 317 317 319 321 320 318 310 307 306 304 304 305 306 307 308 308 309 311 313 313 312 311 310 309 309 308 308 308 308 308 307 307 307 307 307 306 306 306 305 305
321 321 321 321 319 319 319 320 319 310 309 306 305 306 306 306 306 307 309 309 311 312 312 312 312 311 310 310 309 310 309 309 309 309 308 308 307 307 307 306 306 306 305
320 320 321 321 322 321 321 320 320 313 309 307 307 308 307 306 306 307 308 310 311 311 312 312 312 312 311 310 311 310 311 310 309 309 309 308 308 308 307 307 306 306 305
320 318 319 319 320 321 321 320 317 314 309 308 308 308 307 306 306 307 307 309 310 311 311 311 311 310 309 309 308 309 309 311 310 309 309 309 309 309 308 307 306 306 306
320 318 317 318 317 318 319 316 316 314 310 311 309 309 308 307 306 306 307 307 307 308 309 309 308 308 308 307 306 306 307 308 311 309 308 308 309 308 308 308 307 306 306
320 320 320 316 318 317 317 316 313 313 317 312 310 308 308 308 307 307 306 306 307 307 307 307 307 307 307 306 306 306 306 306 306 306 310 307 307 308 308 308 308 306 306
318 320 320 319 318 318 317 317 315 318 318 313 312 309 308 307 307 307 306 306 306 306 306 306 307 307 306 306 306 306 306 306 306 308 308 307 308 306 307 306 306 305 305
Wind_Speed
12 21 29 28 26 26 26 25 25 25 22 20 19 18 17 18 18 17 15 16 18 17 14 11 10 10 8 12 13 14 14 14 13 14 14 13 13 13 13 12 13 9 8
9 22 31 29 28 27 26 24 24 23 21 19 19 19 18 18 17 18 19 21 18 14 10 10 12 10 8 10 13 14 14 13 13 12 13 13 12 11 11 10 11 8 8
8 21 30 30 30 28 28 26 25 23 21 20 19 19 20 19 20 20 20 18 14 10 7 9 9 10 11 9 12 13 12 11 11 11 14 10 11 11 10 10 9 8 11
11 20 27 31 30 29 27 28 25 24 24 23 22 22 20 19 20 19 19 16 12 10 8 9 9 9 10 11 12 12 11 11 11 12 10 9 8 8 8 11 12 14 13
9 19 27 31 30 29 28 28 27 26 25 24 23 21 20 20 19 18 17 15 12 10 9 9 10 10 11 12 12 11 11 11 10 10 9 10 9 9 10 10 10 7 7
9 18 27 31 33 30 29 29 30 28 26 25 22 22 21 20 19 17 16 14 12 11 10 10 10 11 12 13 14 13 13 12 12 9 11 14 14 13 10 10 9 8 6
11 18 25 32 32 32 30 30 31 30 27 23 22 22 20 19 18 17 15 14 13 12 11 11 11 12 13 14 16 13 13 13 9 11 14 17 15 12 11 9 7 5 2
12 20 25 32 32 34 32 31 31 29 27 26 23 20 19 18 17 16 15 14 13 13 12 13 13 14 14 15 16 14 13 13 15 17 16 13 9 7 6 6 4 3 5
16 24 27 30 34 36 33 31 32 30 30 27 23 19 18 17 17 17 16 15 14 14 14 15 16 17 17 16 16 16 18 21 20 15 11 8 5 4 5 7 3 4 5
15 21 28 29 34 37 33 33 32 31 30 29 23 20 18 17 18 17 16 15 15 14 18 18 19 19 20 19 19 19 22 20 18 12 10 8 5 3 4 6 7 7 10
21 22 29 30 32 34 31 34 34 33 32 28 23 20 18 18 18 17 17 16 16 17 19 19 21 21 22 19 19 20 20 16 12 9 10 7 3 6 10 10 11 12 12
17 5 29 31 31 32 33 36 37 36 31 26 23 22 20 19 19 19 18 18 18 21 23 23 21 21 19 18 18 16 12 12 10 8 8 7 3 9 10 11 12 12 14
16 14 6 22 27 33 39 39 40 36 31 22 21 22 21 21 22 20 21 19 20 24 23 21 22 18 15 15 14 12 14 13 12 10 8 7 10 12 11 11 11 13 14
14 22 24 20 20 33 40 44 44 37 27 25 24 24 24 23 23 21 20 18 21 21 19 23 18 18 17 15 14 15 15 14 12 10 10 11 12 11 11 11 11 12 12
10 12 31 31 22 32 42 45 43 38 31 28 27 27 26 25 24 23 21 20 21 20 23 22 19 17 17 17 17 16 15 13 12 11 11 13 13 12 11 10 9 8 7
10 5 24 35 30 18 46 47 46 40 35 31 30 29 26 25 25 25 25 22 22 22 24 22 19 17 17 18 17 17 15 14 12 13 11 11 9 9 9 9 8 8 7
6 5 8 28 22 25 29 36 58 42 36 32 30 29 28 26 26 26 27 27 26 25 23 22 21 18 18 18 19 17 15 14 14 13 11 10 9 7 6 5 5 5 5
13 7 3 15 20 15 9 9 26 40 34 31 30 28 27 26 26 27 28 28 28 27 25 23 22 21 20 20 20 19 17 15 13 12 11 10 9 7 5 4 3 3 2
19 14 14 19 16 13 13 2 25 27 29 28 29 28 27 27 27 26 27 27 27 27 26 25 23 21 22 21 19 18 16 14 13 12 10 9 8 7 5 4 3 2 1
18 16 11 10 8 13 7 6 15 17 25 26 27 28 27 26 27 26 26 26 27 27 27 26 24 22 21 20 19 17 15 14 13 12 11 9 8 6 4 3 2 3 2
18 16 18 20 16 11 13 15 21 15 15 23 24 24 25 25 26 26 26 27 27 27 26 25 24 24 24 22 20 17 14 13 12 12 11 10 9 6 5 4 4 4 4
21 23 23 19 26 28 28 21 23 36 14 19 23 23 24 25 26 26 27 27 27 27 26 27 25 26 24 23 16 14 9 10 14 15 14 12 11 9 8 7 6 6 6
21 19 15 18 22 25 24 29 38 40 24 17 23 23 25 25 25 25 26 26 26 26 26 26 25 23 24 24 21 10 7 6 12 17 16 14 14 11 11 10 9 9 8
19 19 17 21 17 22 25 31 34 38 32 16 22 25 25 25 24 25 25 25 25 25 25 24 23 23 22 23 23 20 10 9 7 7 15 15 15 14 13 13 12 12 10
9 10 19 24 21 23 30 29 34 29 26 31 24 24 25 25 26 26 25 25 25 25 24 25 25 25 23 22 22 21 16 14 11 8 6 14 16 16 16 16 14 13 11
9 10 11 21 22 25 31 31 36 30 25 37 27 29 28 27 27 26 26 25 25 25 25 25 25 24 22 20 19 18 17 16 14 11 7 11 9 13 15 14 14 13 13
Wind_Direction
223 199 193 186 182 179 179 181 176 176 173 173 170 167 169 168 163 154 154 149 142 134 130 132 124 126 130 133 130 130 128 121 115 113 108 105 106 107 105 107 99 108 103
241 201 196 191 185 181 179 175 173 172 173 172 170 166 162 161 157 164 162 153 154 157 153 168 152 152 153 133 131 131 132 130 122 114 111 105 105 105 107 108 112 107 104
279 198 199 194 187 183 180 175 176 174 172 170 167 164 163 166 168 169 169 170 176 186 193 193 192 170 165 149 142 140 141 141 134 121 101 109 108 106 109 97 106 96 106
310 203 198 195 189 184 184 177 172 175 178 175 171 172 176 176 181 179 180 187 198 212 217 202 196 184 171 159 149 148 147 142 133 113 102 104 113 110 115 104 107 109 117
275 208 199 196 190 187 185 178 176 181 182 183 182 178 179 183 184 187 194 203 213 220 204 192 182 177 170 166 156 151 150 145 138 115 114 117 122 123 125 119 115 120 118
261 209 203 197 193 188 195 187 181 183 186 189 184 185 189 193 195 199 205 214 214 199 187 179 171 168 166 165 156 154 149 141 122 118 118 136 128 119 126 155 145 124 144
247 211 208 199 193 190 200 193 186 188 192 195 182 186 190 196 202 205 208 204 196 185 179 173 166 163 160 162 160 153 146 144 124 130 132 123 124 128 129 134 158 150 141
254 209 209 200 194 193 202 197 188 189 190 192 189 193 196 202 204 201 195 191 185 178 169 167 164 159 156 153 153 153 152 143 135 130 130 131 143 156 178 175 181 241 273
261 220 204 201 196 195 203 198 189 192 195 199 198 200 204 203 199 190 186 184 179 175 160 148 148 153 150 148 146 145 147 144 141 134 120 134 168 213 246 223 238 247 260
243 235 213 200 199 195 202 199 192 197 198 200 201 207 207 200 193 184 182 181 174 174 157 152 146 143 145 140 141 139 142 146 139 122 133 152 174 203 107 109 111 112 108
233 232 215 201 199 197 199 197 197 198 200 201 204 211 204 191 184 176 180 176 174 160 150 153 150 150 146 142 142 143 145 145 129 133 143 166 189 126 103 103 96 91 91
243 287 217 204 197 198 197 198 198 201 204 200 200 202 187 181 179 175 176 174 170 150 157 161 159 147 146 149 151 149 145 146 137 135 163 183 221 114 107 102 101 98 87
239 268 58 201 205 202 199 196 198 198 205 187 191 188 183 180 182 175 168 164 157 156 166 166 153 154 157 154 156 148 145 139 134 132 131 160 124 108 102 102 103 105 100
290 264 264 322 186 214 202 201 200 203 189 194 192 190 184 179 175 171 163 164 157 161 160 160 162 166 168 162 151 144 140 138 135 128 137 129 116 110 104 97 100 107 112
256 275 264 292 327 210 210 209 203 211 205 199 195 192 189 186 180 174 168 163 163 163 163 166 165 168 160 151 146 147 147 142 136 130 135 129 128 121 110 99 95 97 108
249 269 290 258 288 271 223 219 205 207 205 200 196 192 191 189 186 179 171 167 165 162 165 167 165 160 158 153 152 158 160 160 154 139 137 144 139 137 131 119 107 97 90
203 247 320 266 291 298 202 206 210 202 200 197 193 190 187 188 188 182 175 169 166 164 165 165 166 164 160 159 162 164 164 159 153 153 143 146 150 150 143 136 132 119 99
184 169 308 244 293 291 315 225 166 187 190 190 188 187 185 183 183 180 174 172 171 169 170 171 169 166 166 162 162 161 161 160 159 161 159 160 160 163 168 165 160 150 131
202 188 171 183 200 225 233 299 146 157 176 184 183 182 181 179 179 180 179 177 175 174 173 173 171 172 168 164 163 161 162 164 167 168 171 173 176 176 186 184 196 199 191
210 207 190 180 191 213 208 237 152 144 167 178 180 179 179 181 181 183 184 182 179 177 176 176 176 172 171 168 165 164 165 169 174 177 181 183 187 188 195 204 218 240 254
196 201 208 206 192 177 195 222 207 167 179 175 181 182 183 187 186 186 185 183 182 182 181 179 177 176 173 174 168 166 172 178 185 189 192 197 200 203 213 219 235 241 245
186 182 188 197 197 188 186 173 179 182 193 187 189 186 185 188 189 189 190 185 184 184 184 184 183 179 183 178 175 166 172 198 205 205 203 203 208 211 214 222 232 236 247
186 186 175 180 188 194 186 181 175 175 195 199 193 190 189 188 192 192 192 191 188 188 189 188 190 194 188 187 186 176 168 194 186 214 211 207 212 217 225 230 234 239 247
212 199 196 168 172 181 189 184 185 184 170 201 207 194 191 189 191 194 195 193 194 192 195 195 194 197 201 198 195 200 196 183 179 183 213 217 219 221 227 234 238 240 243
200 224 217 185 192 186 178 171 176 180 179 197 205 202 197 194 192 194 196 194 197 196 197 200 199 201 204 210 211 210 209 199 199 175 184 214 217 222 224 230 237 244 249
210 213 226 213 197 199 191 184 180 198 194 180 188 205 198 197 196 196 196 197 199 198 200 201 203 206 209 211 214 218 218 206 204 216 209 199 201 219 226 233 238 243 252